Location: Chevoux
(46.3801°N, 4.9476°E)
Time: 22:33:16
(UTC+00:00)

Iridium 4 Rocket - Pass Details

Date: 28 January 2021
Orbit: 583 x 906 km, 86.9° (Epoch: 03 March)

Event Time Altitude Azimuth Distance (km) Brightness Sun altitude
Rises 17:52:48 0° 358° (N) 3,394 6.7 -12.8°
Reaches altitude 10° 17:55:19 10° 1° (N) 2,411 5.9 -13.3°
Maximum altitude 18:00:42 73° 86° (E) 797 3.4 -14.2°
Drops below altitude 10° 18:05:34 10° 171° (S) 2,180 5.9 -15.0°
Sets 18:07:45 0° 174° (S) 3,045 6.7 -15.4°
